When you browse on this site, cookies collect data to enhance your experience and personalize the content and advertising you see.
Visit our Privacy Policy to learn more. By continuing to use the site, you agree to this use of cookies and data.
  • In Austria
  • List of Countries
  • For 7 days
  • Water Temperature
  • Satellite Maps
  • Weather Map
  • News
  • Weather Widgets
  • user-avatar
    Login

    Hourly Weather Safaga

    Today, 20 January, Sunday

    Time Temperature Precipitation Wind Pressure Humidity
    00:00 +10°C° 0 mm 0 mps 706 mmHg 35%
    01:00 +9°C° 0 mm 0 mps 706 mmHg 35%
    02:00 +9°C° 0 mm 0 mps 705 mmHg 36%
    03:00 +8°C° 0 mm 0 mps 705 mmHg 36%
    04:00 +8°C° 0 mm 0 mps 705 mmHg 35%
    05:00 +8°C° 0 mm 0 mps 705 mmHg 34%
    06:00 +9°C° 0 mm 0 mps 706 mmHg 30%
    07:00 +11°C° 0 mm 0 mps 706 mmHg 26%
    08:00 +14°C° 0 mm 0 mps 707 mmHg 20%
    09:00 +15°C° 0 mm 0 mps 707 mmHg 18%
    10:00 +17°C° 0 mm 0 mps 707 mmHg 16%
    11:00 +18°C° 0 mm 0 mps 707 mmHg 15%
    12:00 +19°C° 0 mm 0 mps 707 mmHg 13%
    13:00 +22°C° 0 mm 1 mps 707 mmHg 12%
    14:00 +23°C° 0 mm 1 mps 706 mmHg 11%
    15:00 +22°C° 0 mm 1 mps 706 mmHg 13%
    16:00 +21°C° 0 mm 1 mps 706 mmHg 15%
    17:00 +20°C° 0 mm 1 mps 706 mmHg 17%
    18:00 +19°C° 0 mm 1 mps 706 mmHg 21%
    19:00 +15°C° 0 mm 0 mps 706 mmHg 25%
    20:00 +14°C° 0 mm 0 mps 705 mmHg 29%
    21:00 +13°C° 0 mm 0 mps 706 mmHg 31%
    22:00 +13°C° 0 mm 0 mps 706 mmHg 33%
    23:00 +12°C° 0 mm 0 mps 706 mmHg 36%

    Tomorrow, 21 January, Monday

    Time Temperature Precipitation Wind Pressure Humidity
    00:00 +12°C° 0 mm 0 mps 705 mmHg 38%
    01:00 +12°C° 0 mm 0 mps 705 mmHg 41%
    02:00 +12°C° 0 mm 1 mps 705 mmHg 43%
    03:00 +12°C° 0 mm 1 mps 705 mmHg 46%
    04:00 +12°C° 0 mm 1 mps 705 mmHg 49%
    05:00 +11°C° 0 mm 1 mps 704 mmHg 52%
    06:00 +12°C° 0 mm 0 mps 705 mmHg 47%
    07:00 +13°C° 0 mm 0 mps 705 mmHg 43%
    08:00 +15°C° 0 mm 0 mps 706 mmHg 39%
    09:00 +17°C° 0 mm 0 mps 706 mmHg 32%
    10:00 +18°C° 0 mm 0 mps 707 mmHg 25%
    11:00 +20°C° 0 mm 0 mps 707 mmHg 19%
    12:00 +23°C° 0 mm 1 mps 707 mmHg 16%
    13:00 +24°C° 0 mm 1 mps 706 mmHg 14%
    14:00 +25°C° 0 mm 1 mps 706 mmHg 12%
    15:00 +24°C° 0 mm 1 mps 706 mmHg 13%
    16:00 +23°C° 0 mm 1 mps 705 mmHg 14%
    17:00 +22°C° 0 mm 1 mps 705 mmHg 15%
    18:00 +21°C° 0 mm 1 mps 705 mmHg 18%
    19:00 +17°C° 0 mm 0 mps 705 mmHg 21%
    20:00 +16°C° 0 mm 0 mps 705 mmHg 24%
    21:00 +15°C° 0 mm 0 mps 705 mmHg 25%
    22:00 +15°C° 0 mm 0 mps 705 mmHg 25%
    23:00 +14°C° 0 mm 0 mps 705 mmHg 25%

    Day after tomorrow, 22 January, Tuesday

    Time Temperature Precipitation Wind Pressure Humidity
    00:00 +14°C° 0 mm 0 mps 705 mmHg 23%
    01:00 +13°C° 0 mm 0 mps 705 mmHg 20%
    02:00 +13°C° 0 mm 0 mps 704 mmHg 18%
    03:00 +13°C° 0 mm 1 mps 704 mmHg 15%
    04:00 +13°C° 0 mm 1 mps 704 mmHg 12%
    05:00 +13°C° 0 mm 1 mps 704 mmHg 9%
    06:00 +14°C° 0 mm 1 mps 704 mmHg 8%
    07:00 +16°C° 0 mm 1 mps 705 mmHg 6%
    08:00 +18°C° 0 mm 1 mps 706 mmHg 5%
    09:00 +20°C° 0 mm 1 mps 706 mmHg 6%
    10:00 +21°C° 0 mm 2 mps 706 mmHg 7%
    11:00 +24°C° 0 mm 2 mps 707 mmHg 7%
    12:00 +24°C° 0 mm 3 mps 706 mmHg 7%
    13:00 +25°C° 0 mm 3 mps 706 mmHg 7%
    14:00 +26°C° 0 mm 4 mps 705 mmHg 7%
    15:00 +24°C° 0 mm 3 mps 705 mmHg 9%
    16:00 +22°C° 0 mm 3 mps 705 mmHg 10%
    17:00 +21°C° 0 mm 2 mps 705 mmHg 12%
    18:00 +20°C° 0 mm 1 mps 705 mmHg 17%
    19:00 +18°C° 0 mm 1 mps 705 mmHg 23%
    20:00 +14°C° 0 mm 0 mps 705 mmHg 28%
    21:00 +14°C° 0 mm 0 mps 705 mmHg 33%
    22:00 +14°C° 0 mm 1 mps 704 mmHg 38%
    23:00 +13°C° 0 mm 1 mps 704 mmHg 43%

    23 January, Wednesday

    Time Temperature Precipitation Wind Pressure Humidity
    00:00 +13°C° 0 mm 1 mps 704 mmHg 47%
    01:00 +12°C° 0 mm 1 mps 704 mmHg 50%
    02:00 +12°C° 0 mm 1 mps 703 mmHg 54%
    03:00 +11°C° 0 mm 1 mps 703 mmHg 56%
    04:00 +11°C° 0 mm 1 mps 703 mmHg 58%
    05:00 +11°C° 0 mm 1 mps 703 mmHg 60%
    06:00 +12°C° 0 mm 1 mps 704 mmHg 53%
    07:00 +14°C° 0 mm 1 mps 704 mmHg 47%
    08:00 +15°C° 0 mm 1 mps 705 mmHg 40%
    09:00 +18°C° 0 mm 1 mps 705 mmHg 34%
    10:00 +20°C° 0 mm 1 mps 705 mmHg 27%
    11:00 +22°C° 0 mm 1 mps 706 mmHg 21%
    12:00 +23°C° 0 mm 2 mps 705 mmHg 19%
    13:00 +24°C° 0 mm 2 mps 704 mmHg 16%
    14:00 +25°C° 0 mm 2 mps 704 mmHg 14%
    15:00 +24°C° 0 mm 2 mps 704 mmHg 17%
    16:00 +23°C° 0 mm 2 mps 703 mmHg 19%
    17:00 +22°C° 0 mm 1 mps 703 mmHg 21%
    18:00 +20°C° 0 mm 1 mps 703 mmHg 29%
    19:00 +19°C° 0 mm 1 mps 703 mmHg 37%
    20:00 +16°C° 0 mm 1 mps 703 mmHg 45%
    21:00 +15°C° 0 mm 1 mps 703 mmHg 49%
    22:00 +15°C° 0 mm 1 mps 703 mmHg 53%
    23:00 +14°C° 0 mm 1 mps 703 mmHg 57%

    24 January, Thursday

    Time Temperature Precipitation Wind Pressure Humidity
    00:00 +14°C° 0 mm 1 mps 703 mmHg 57%
    01:00 +14°C° 0 mm 1 mps 702 mmHg 58%
    02:00 +13°C° 0 mm 1 mps 702 mmHg 58%
    03:00 +13°C° 0 mm 1 mps 702 mmHg 57%
    04:00 +13°C° 0 mm 1 mps 702 mmHg 56%
    05:00 +13°C° 0 mm 1 mps 701 mmHg 56%
    06:00 +15°C° 0 mm 1 mps 702 mmHg 55%
    07:00 +16°C° 0 mm 2 mps 702 mmHg 53%
    08:00 +17°C° 0 mm 2 mps 703 mmHg 52%
    09:00 +20°C° 0 mm 2 mps 703 mmHg 44%
    10:00 +22°C° 0 mm 3 mps 703 mmHg 36%
    11:00 +25°C° 0 mm 3 mps 704 mmHg 27%
    12:00 +27°C° 0 mm 5 mps 704 mmHg 22%
    13:00 +29°C° 0 mm 6 mps 703 mmHg 18%
    14:00 +31°C° 0 mm 8 mps 703 mmHg 13%
    15:00 +29°C° 0 mm 6 mps 703 mmHg 14%
    16:00 +28°C° 0 mm 5 mps 703 mmHg 14%
    17:00 +27°C° 0 mm 3 mps 703 mmHg 15%
    18:00 +25°C° 0 mm 3 mps 703 mmHg 14%
    19:00 +22°C° 0 mm 3 mps 703 mmHg 13%
    20:00 +20°C° 0 mm 2 mps 703 mmHg 12%
    21:00 +19°C° 0 mm 2 mps 703 mmHg 10%
    22:00 +19°C° 0 mm 1 mps 703 mmHg 8%
    23:00 +19°C° 0 mm 1 mps 703 mmHg 6%

    25 January, Friday

    Time Temperature Precipitation Wind Pressure Humidity
    00:00 +18°C° 0 mm 1 mps 703 mmHg 6%
    01:00 +18°C° 0 mm 1 mps 703 mmHg 5%
    02:00 +15°C° 0 mm 0 mps 702 mmHg 4%
    03:00 +15°C° 0 mm 0 mps 702 mmHg 6%
    04:00 +15°C° 0 mm 0 mps 702 mmHg 7%
    05:00 +14°C° 0 mm 0 mps 702 mmHg 8%
    06:00 +16°C° 0 mm 0 mps 703 mmHg 10%
    07:00 +17°C° 0 mm 0 mps 704 mmHg 11%
    08:00 +18°C° 0 mm 0 mps 704 mmHg 13%
    09:00 +20°C° 0 mm 0 mps 704 mmHg 13%
    10:00 +22°C° 0 mm 0 mps 705 mmHg 13%
    11:00 +24°C° 0 mm 0 mps 705 mmHg 13%
    12:00 +27°C° 0 mm 1 mps 705 mmHg 12%
    13:00 +28°C° 0 mm 2 mps 704 mmHg 11%
    14:00 +29°C° 0 mm 2 mps 704 mmHg 10%
    15:00 +28°C° 0 mm 2 mps 704 mmHg 11%
    16:00 +27°C° 0 mm 2 mps 704 mmHg 11%
    17:00 +26°C° 0 mm 2 mps 704 mmHg 12%
    18:00 +24°C° 0 mm 1 mps 704 mmHg 15%
    19:00 +23°C° 0 mm 1 mps 704 mmHg 17%
    20:00 +22°C° 0 mm 1 mps 704 mmHg 20%
    21:00 +21°C° 0 mm 1 mps 704 mmHg 18%
    22:00 +21°C° 0 mm 1 mps 704 mmHg 15%
    23:00 +20°C° 0 mm 1 mps 704 mmHg 13%
    Show more